星链-36627(STARLINK-36627)

导读

STARLINK-36627是美国于2026年1月30日发射的星链卫星,归属太空探索技术公司Starlink卫星互联网星座项目。星链计划旨在打造覆盖全球的低轨卫星互联网网络,为全球偏远地区、海洋等网络覆盖空白区域提供高速网络服务,该卫星入轨后将进一步扩充星链星座规模,提升星座的服务能力与覆盖稳定性。

Basic Information
目录编号:
67635
目录名称:
STARLINK-36627
国际标识:
2026-020U
轨道中心:
EARTH
卫星名称:
星链-36627
卫星全名:
星链-36627(STARLINK-36627)
卫星状态:
在轨 (已飞行218 天)
发射日期:
2026-01-30 UTC
国别 :
美国 (US)
星等 :
--
Orbit Information
数据来源 国际轨道数据
星历时间: 2026-09-05T13:33:45+0800
7小时前
查看轨道信息
半长轴: 6861.094km
偏心率: 0.0001171
轨道倾角: 42.999°
近地点辐角 266.590°
升交点赤经 205.699°
平近点角 93.482°
近地点: 482.153km
远地点: 483.761km
周期: 94.265分钟
每日圈数: 15.276109
Detailed Information
固有亮度:
5
最大亮度:
2.5
卫星平台:
Starlink V1.0
覆盖范围:
全球
运营商:
太空探索技术公司
运营商所在国:
美国
制造商(研发单位):
太空探索技术公司
制造商所在国:
美国
使用方式:
暂无
Satellite Introduction
Starlink 计划是 SpaceX 推出的全球卫星互联网项目,通过发射低轨道卫星,为全球尤其是偏远地区提供高速、低延迟的互联网服务。自 2019 年起,Starlink 已部署数千颗卫星,旨在缩小全球数字鸿沟,推动互联网普及。该项目还为军事、航空等行业提供通信支持,带来广泛经济效益。
2D Orbit Map
3D Orbit Map
Orbit Altitude Analysis Chart
Orbit Inclination Analysis Chart
Orbit Comprehensive Analysis Chart
View Comprehensive Chart
Conjunction Data List
Event ID Objects TCA Miss Dist (km) Collision Risk Probability Collision Risk Index (CRI) Action
CDM_260907-212205-968306-763521
2026-09-07T
21:22:39+0000
0.050 km
近距离
1.365884E-3 极高风险 0.98
CDM_260907-102005-841306-763522
2026-09-07T
10:20:50+0000
0.351 km
远距离
2.967061E-4 高风险 0.84
CDM_260906-201805-808306-763521
2026-09-06T
20:18:12+0000
0.975 km
远距离
1.398948E-5 中风险 0.58
CDM_260907-032105-808306-763521
2026-09-07T
03:21:53+0000
1.019 km
极远距离
1.202908E-5 中风险 0.57
CDM_260907-084605-841306-763522
2026-09-07T
08:46:41+0000
1.501 km
极远距离
4.373056E-6 低风险 0.48
CDM_260906-184405-808306-763521
2026-09-06T
18:44:02+0000
1.416 km
极远距离
3.942226E-6 低风险 0.47
CDM_260907-045605-808306-763521
2026-09-07T
04:56:03+0000
1.781 km
极远距离
1.986029E-6 低风险 0.41
CDM_260907-234105-841306-763521
2026-09-07T
23:41:08+0000
2.233 km
极远距离
1.500709E-6 低风险 0.39
CDM_260907-115405-841306-763521
2026-09-07T
11:54:59+0000
2.236 km
极远距离
1.496804E-6 低风险 0.39
CDM_260905-120804-780506-763523
2026-09-05T
12:08:57+0000
2.458 km
极远距离
1.16962E-6 低风险 0.36